ONEWEB-0133 (47279 NORAD) Tracking and Keplerian Element Data
This shows tracking and keplerian element data for the satellite.
Feedback or suggestion? Click here.
Element | Value |
Catalog | 47279 |
Name | ONEWEB-0133 |
Epoch Orbit | 177 |
Epoch Day | 62.91667824 |
Epoch Year | 2021 |
RAAN | 15.7134 |
Inclination | 87.6659 |
Eccentricity | 0.0013327 |
Argument of Perigee | 18.53 |
Mean Anonmoly | 328.8511 |
Mean Motion | 13.96452232 |
Decay Rate | -0.00029337 |
L1 | 1 47279U 20100X 21062.91667824 -.00029337 00000-0 -21347-1 0 9990 |
L2 | 2 47279 87.6659 15.7134 0013327 18.5300 328.8511 13.96452232 1776 |
Live tracking and technical data element details for ONEWEB-0133 (NORAD 47279). ONEWEB-0133 can be tracked NOW for your location showing map with azimuth and elevation plus other details from your city location.
Track the satellite on the map from your city or location and see movement details for azimuth, elevation, latitude, longitude, range, height, and movement on the map or in text.
IsCatalogInMostPopularTable: catalog: 47279, numindb: 28
Update: records affected: 1
GetName: 47279 ONEWEB-0133
Hit Count: updated at: Fri, 05 Mar 2021 07:21:42 GMT